TimeEDT,TemperatureF,Dew PointF,Humidity,Sea Level PressureIn,VisibilityMPH,Wind Direction,Wind SpeedMPH,Gust SpeedMPH,PrecipitationIn,Events,Conditions,WindDirDegrees,DateUTC
12:53 AM,78.1,73.9,87,30.04,10.0,Calm,Calm,-,N/A,,Scattered Clouds,0,2013-08-28 04:53:00
1:53 AM,75.9,73.9,94,30.02,10.0,Calm,Calm,-,N/A,,Clear,0,2013-08-28 05:53:00
2:53 AM,75.9,73.0,91,30.01,10.0,Calm,Calm,-,N/A,,Clear,0,2013-08-28 06:53:00
3:53 AM,75.9,72.0,87,30.01,10.0,ESE,5.8,-,0.01,,Clear,110,2013-08-28 07:53:00
4:53 AM,75.9,71.1,85,30.00,10.0,East,5.8,-,N/A,,Partly Cloudy,100,2013-08-28 08:53:00
5:53 AM,75.0,71.1,87,30.01,10.0,ESE,4.6,-,N/A,,Clear,110,2013-08-28 09:53:00
6:53 AM,75.0,71.1,87,30.02,10.0,East,5.8,-,N/A,,Clear,100,2013-08-28 10:53:00
7:53 AM,77.0,72.0,84,30.04,10.0,ESE,4.6,-,N/A,,Clear,110,2013-08-28 11:53:00
8:53 AM,80.1,72.0,76,30.04,10.0,East,5.8,-,N/A,,Clear,100,2013-08-28 12:53:00
9:53 AM,82.0,72.0,71,30.05,10.0,ESE,8.1,-,N/A,,Clear,110,2013-08-28 13:53:00
10:53 AM,82.9,72.0,69,30.06,10.0,ESE,6.9,-,N/A,,Clear,120,2013-08-28 14:53:00
11:53 AM,84.9,72.0,65,30.07,10.0,East,6.9,-,N/A,,Clear,100,2013-08-28 15:53:00
12:53 PM,86.0,70.0,59,30.06,10.0,Variable,6.9,-,N/A,,Clear,0,2013-08-28 16:53:00
1:53 PM,88.0,70.0,55,30.04,10.0,NNE,4.6,-,N/A,,Scattered Clouds,20,2013-08-28 17:53:00
2:53 PM,89.1,68.0,50,30.02,10.0,North,3.5,-,N/A,,Scattered Clouds,10,2013-08-28 18:53:00
3:53 PM,89.1,70.0,53,30.01,10.0,WNW,3.5,-,N/A,,Scattered Clouds,300,2013-08-28 19:53:00
4:53 PM,84.9,72.0,65,29.99,10.0,WNW,6.9,-,N/A,,Scattered Clouds,300,2013-08-28 20:53:00
5:53 PM,86.0,72.0,63,29.99,10.0,NNW,11.5,-,N/A,,Scattered Clouds,330,2013-08-28 21:53:00
6:53 PM,82.0,71.1,69,29.99,10.0,SSE,13.8,-,N/A,,Mostly Cloudy,150,2013-08-28 22:53:00
7:29 PM,77.0,71.6,83,30.02,4.0,Variable,6.9,23.0,0.21,Rain,Heavy Rain,0,2013-08-28 23:29:00
7:53 PM,77.0,72.0,84,30.02,10.0,SW,4.6,-,0.41,Rain,Light Rain,220,2013-08-28 23:53:00
8:53 PM,78.1,73.0,84,30.02,10.0,SSE,3.5,-,0.00,,Scattered Clouds,150,2013-08-29 00:53:00
9:53 PM,79.0,73.9,84,30.03,10.0,Calm,Calm,-,N/A,,Partly Cloudy,0,2013-08-29 01:53:00
10:53 PM,78.1,75.0,90,30.05,10.0,Calm,Calm,-,N/A,,Overcast,0,2013-08-29 02:53:00
11:53 PM,77.0,75.0,94,30.05,10.0,Calm,Calm,-,N/A,,Clear,0,2013-08-29 03:53:00